Location: ??????????
(54.8537°N, 38.8755°E)
Time: 00:40:39
(UTC+00:00)

Transit 2A Rocket - Pass Details

Date: 19 September 2024
Orbit: 583 x 908 km, 66.7° (Epoch: 15 October)

Event Time Altitude Azimuth Distance (km) Brightness Sun altitude
Exits shadow 00:05:43 11° 299° (WNW) 2,536 7.5 -24.2°
Maximum altitude 00:10:35 27° 355° (N) 1,671 7.1 -23.6°
Drops below altitude 10° 00:15:33 10° 51° (NE) 2,533 8.8 -23.1°
Sets 00:18:24 0° 64° (ENE) 3,429 9.7 -22.8°
